| time (UTC) | temp C | wind direction | speed KPH | gust KPH | rain 1hr cm | rain 24hr cm | rain mn cm | humidity % | barometer mb |
| 20260906114547 | 16 | 155 | 0.0 | 0.0 | 0.00 | 0.00 | 0.00 | 100 | 1019.7 |
| 20260906113037 | 16 | 155 | 0.0 | 0.0 | 0.00 | 0.00 | 0.00 | 100 | 1019.5 |
| 20260906111524 | 16 | 155 | 0.0 | 3.2 | 0.00 | 0.00 | 0.00 | 100 | 1019.4 |
| 20260906110028 | 16 | 217 | 0.0 | 0.0 | 0.00 | 0.00 | 0.00 | 100 | 1019.2 |
| 20260906104521 | 16 | 227 | 0.0 | 0.0 | 0.00 | 0.00 | 0.00 | 100 | 1019.0 |
| 20260906103025 | 16 | 228 | 0.0 | 0.0 | 0.00 | 0.00 | 0.00 | 100 | 1019.0 |
| 20260906101520 | 16 | 227 | 0.0 | 0.0 | 0.00 | 0.00 | 0.00 | 100 | 1018.8 |
| 20260906100026 | 16 | 227 | 0.0 | 0.0 | 0.00 | 0.00 | 0.00 | 100 | 1018.7 |
| 20260906094511 | 16 | 228 | 0.0 | 0.0 | 0.00 | 0.00 | 0.00 | 100 | 1018.7 |
| 20260906093009 | 16 | 338 | 0.0 | 0.0 | 0.00 | 0.00 | 0.00 | 100 | 1018.2 |
| 20260906091504 | 17 | 341 | 0.0 | 0.0 | 0.00 | 0.00 | 0.00 | 100 | 1018.3 |
| 20260906090108 | 16 | 342 | 0.0 | 0.0 | 0.00 | 0.00 | 0.00 | 100 | 1018.6 |
| 20260906084611 | 16 | 341 | 0.0 | 0.0 | 0.00 | 0.00 | 0.00 | 100 | 1018.7 |
| 20260906083108 | 16 | 341 | 0.0 | 0.0 | 0.00 | 0.00 | 0.00 | 100 | 1018.8 |
| 20260906081608 | 16 | 341 | 0.0 | 0.0 | 0.00 | 0.00 | 0.00 | 100 | 1018.6 |
| 20260906080110 | 16 | 341 | 0.0 | 0.0 | 0.00 | 0.00 | 0.00 | 100 | 1018.5 |
| 20260906074608 | 16 | 340 | 0.0 | 0.0 | 0.00 | 0.00 | 0.00 | 100 | 1018.7 |
| 20260906073103 | 16 | 341 | 0.0 | 0.0 | 0.00 | 0.00 | 0.00 | 100 | 1018.7 |
| 20260906071601 | 16 | 341 | 0.0 | 0.0 | 0.00 | 0.00 | 0.00 | 100 | 1018.8 |
| 20260906070031 | 16 | 341 | 0.0 | 0.0 | 0.00 | 0.00 | 0.00 | 100 | 1018.9 |
| 20260906064517 | 16 | 341 | 0.0 | 0.0 | 0.00 | 0.00 | 0.00 | 100 | 1018.8 |
| 20260906063008 | 16 | 18 | 0.0 | 0.0 | 0.00 | 0.00 | 0.00 | 100 | 1018.8 |
| 20260906061505 | 16 | 20 | 0.0 | 0.0 | 0.00 | 0.00 | 0.00 | 100 | 1018.6 |
| 20260906060109 | 17 | 20 | 0.0 | 0.0 | 0.00 | 0.00 | 0.00 | 100 | 1018.4 |
| 20260906054602 | 17 | 357 | 0.0 | 0.0 | 0.00 | 0.00 | 0.00 | 100 | 1018.4 |
| 20260906053057 | 17 | 355 | 0.0 | 0.0 | 0.00 | 0.00 | 0.00 | 100 | 1018.5 |
| 20260906051607 | 17 | 356 | 0.0 | 0.0 | 0.00 | 0.00 | 0.00 | 100 | 1018.5 |
| 20260906050045 | 17 | 356 | 0.0 | 0.0 | 0.00 | 0.00 | 0.00 | 100 | 1018.6 |
| 20260906044549 | 17 | 354 | 0.0 | 0.0 | 0.00 | 0.00 | 0.00 | 100 | 1018.7 |
| 20260906043035 | 17 | 355 | 0.0 | 0.0 | 0.00 | 0.00 | 0.00 | 100 | 1018.5 |
| 20260906041515 | 18 | 359 | 0.0 | 0.0 | 0.00 | 0.00 | 0.00 | 100 | 1018.2 |
| 20260906040037 | 18 | 353 | 0.0 | 0.0 | 0.00 | 0.00 | 0.00 | 100 | 1018.3 |
| 20260906034620 | 18 | 352 | 0.0 | 1.6 | 0.00 | 0.00 | 0.00 | 100 | 1018.3 |
| 20260906033028 | 18 | 79 | 0.0 | 0.0 | 0.00 | 0.00 | 0.00 | 100 | 1017.8 |
| 20260906031526 | 18 | 79 | 0.0 | 0.0 | 0.00 | 0.00 | 0.00 | 100 | 1017.6 |
| 20260906030009 | 18 | 79 | 0.0 | 0.0 | 0.00 | 0.00 | 0.00 | 100 | 1017.5 |
| 20260906024503 | 19 | 79 | 0.0 | 0.0 | 0.00 | 0.00 | 0.00 | 100 | 1017.2 |
| 20260906023001 | 19 | 79 | 0.0 | 0.0 | 0.00 | 0.00 | 0.00 | 99 | 1017.4 |
| 20260906021608 | 19 | 79 | 0.0 | 0.0 | 0.00 | 0.00 | 0.00 | 99 | 1017.2 |
| 20260906020106 | 20 | 80 | 0.0 | 0.0 | 0.00 | 0.00 | 0.00 | 97 | 1016.9 |
| 20260906014601 | 20 | 80 | 0.0 | 0.0 | 0.00 | 0.00 | 0.00 | 96 | 1016.7 |
| 20260906013049 | 20 | 80 | 0.0 | 0.0 | 0.00 | 0.00 | 0.00 | 96 | 1016.5 |
| 20260906011551 | 21 | 82 | 0.0 | 0.0 | 0.00 | 0.00 | 0.00 | 95 | 1015.9 |
| 20260906010046 | 21 | 67 | 0.0 | 3.2 | 0.00 | 0.00 | 0.00 | 94 | 1015.6 |
| 20260906004535 | 21 | 82 | 1.6 | 9.7 | 0.00 | 0.00 | 0.00 | 93 | 1015.9 |
| 20260906003022 | 22 | 108 | 3.2 | 9.7 | 0.00 | 0.00 | 0.00 | 91 | 1016.1 |
| 20260906001501 | 22 | 53 | 3.2 | 17.7 | 0.00 | 0.00 | 0.00 | 89 | 1016.3 |
| 20260905234552 | 24 | 54 | 1.6 | 8.0 | 0.00 | 0.00 | 0.00 | 88 | 1016.1 |
| 20260905233049 | 24 | 94 | 4.8 | 12.9 | 0.00 | 0.00 | 0.00 | 88 | 1016.1 |
| 20260905231530 | 25 | 105 | 1.6 | 12.9 | 0.00 | 0.00 | 0.00 | 87 | 1016.3 |
| 20260905230031 | 25 | 66 | 4.8 | 14.5 | 0.00 | 0.00 | 0.00 | 84 | 1016.2 |
| 20260905224544 | 26 | 79 | 3.2 | 9.7 | 0.00 | 0.00 | 0.00 | 81 | 1016.0 |
| 20260905223118 | 26 | 65 | 1.6 | 8.0 | 0.00 | 0.00 | 0.00 | 80 | 1016.0 |
| 20260905221604 | 27 | 60 | 1.6 | 6.4 | 0.00 | 0.00 | 0.00 | 77 | 1015.9 |
| 20260905220045 | 27 | 23 | 3.2 | 6.4 | 0.00 | 0.00 | 0.00 | 76 | 1016.0 |
| 20260905214543 | 26 | 330 | 3.2 | 9.7 | 0.00 | 0.00 | 0.00 | 79 | 1015.9 |
| 20260905213128 | 26 | 69 | 6.4 | 11.3 | 0.00 | 0.00 | 0.00 | 77 | 1015.8 |
| 20260905211539 | 27 | 330 | 1.6 | 11.3 | 0.00 | 0.00 | 0.00 | 79 | 1015.8 |
| 20260905210002 | 26 | 46 | 1.6 | 4.8 | 0.00 | 0.00 | 0.00 | 77 | 1016.0 |
| 20260905204606 | 26 | 294 | 1.6 | 4.8 | 0.00 | 0.00 | 0.00 | 78 | 1016.3 |
| 20260905203052 | 26 | 306 | 3.2 | 6.4 | 0.00 | 0.00 | 0.00 | 78 | 1016.3 |
| 20260905201540 | 26 | 77 | 0.0 | 4.8 | 0.00 | 0.00 | 0.00 | 82 | 1016.2 |
| 20260905200029 | 25 | 13 | 3.2 | 8.0 | 0.00 | 0.00 | 0.00 | 83 | 1016.1 |
| 20260905194508 | 25 | 75 | 1.6 | 9.7 | 0.00 | 0.00 | 0.00 | 82 | 1016.4 |
| 20260905193114 | 25 | 356 | 0.0 | 0.0 | 0.00 | 0.00 | 0.00 | 83 | 1016.5 |
| 20260905191608 | 26 | 29 | 3.2 | 6.4 | 0.00 | 0.00 | 0.00 | 81 | 1016.6 |
| 20260905190051 | 25 | 31 | 1.6 | 11.3 | 0.00 | 0.00 | 0.00 | 82 | 1016.5 |
| 20260905184550 | 25 | 66 | 0.0 | 6.4 | 0.00 | 0.00 | 0.00 | 83 | 1016.7 |
| 20260905183016 | 25 | 75 | 0.0 | 4.8 | 0.00 | 0.00 | 0.00 | 87 | 1016.8 |
| 20260905181503 | 25 | 65 | 0.0 | 6.4 | 0.00 | 0.00 | 0.00 | 86 | 1017.0 |
| 20260905180109 | 25 | 141 | 0.0 | 3.2 | 0.00 | 0.00 | 0.00 | 89 | 1016.9 |
| 20260905174556 | 23 | 74 | 0.0 | 9.7 | 0.00 | 0.00 | 0.00 | 90 | 1016.9 |
| 20260905173105 | 23 | 63 | 1.6 | 9.7 | 0.00 | 0.00 | 0.00 | 91 | 1016.9 |
| 20260905171536 | 23 | 75 | 0.0 | 4.8 | 0.00 | 0.00 | 0.00 | 91 | 1017.1 |
| 20260905170021 | 23 | 76 | 0.0 | 4.8 | 0.00 | 0.00 | 0.00 | 91 | 1017.1 |
| 20260905164613 | 23 | 351 | 1.6 | 6.4 | 0.00 | 0.00 | 0.00 | 92 | 1017.3 |
| 20260905163114 | 23 | 79 | 0.0 | 1.6 | 0.00 | 0.00 | 0.00 | 93 | 1017.4 |
| 20260905161605 | 22 | 360 | 0.0 | 6.4 | 0.00 | 0.00 | 0.00 | 94 | 1017.3 |
| 20260905160038 | 22 | 23 | 0.0 | 3.2 | 0.00 | 0.00 | 0.00 | 95 | 1017.1 |
| 20260905154527 | 22 | 58 | 0.0 | 3.2 | 0.00 | 0.00 | 0.00 | 97 | 1017.1 |
| 20260905153009 | 22 | 359 | 0.0 | 3.2 | 0.00 | 0.00 | 0.00 | 98 | 1017.2 |
| 20260905151608 | 21 | 98 | 1.6 | 9.7 | 0.00 | 0.00 | 0.00 | 98 | 1016.9 |
| 20260905144545 | 21 | 84 | 0.0 | 9.7 | 0.00 | 0.00 | 0.00 | 99 | 1016.6 |
| 20260905143034 | 21 | 75 | 0.0 | 9.7 | 0.00 | 0.00 | 0.00 | 100 | 1016.3 |
| 20260905141512 | 21 | 58 | 3.2 | 9.7 | 0.00 | 0.00 | 0.00 | 99 | 1016.2 |
| 20260905140000 | 21 | 91 | 0.0 | 4.8 | 0.00 | 0.00 | 0.00 | 100 | 1016.0 |
| 20260905134605 | 21 | 308 | 3.2 | 8.0 | 0.00 | 0.00 | 0.00 | 100 | 1015.8 |
| 20260905133056 | 21 | 10 | 1.6 | 11.3 | 0.00 | 0.00 | 0.00 | 100 | 1015.5 |
| 20260905131541 | 21 | 38 | 3.2 | 9.7 | 0.00 | 0.00 | 0.00 | 100 | 1015.6 |
| 20260905130133 | 21 | 71 | 0.0 | 4.8 | 0.00 | 0.00 | 0.00 | 100 | 1015.2 |
| 20260905124522 | 21 | 21 | 0.0 | 8.0 | 0.00 | 0.00 | 0.00 | 100 | 1015.3 |
| 20260905123113 | 22 | 63 | 1.6 | 6.4 | 0.00 | 0.00 | 0.00 | 100 | 1015.5 |
| 20260905121601 | 22 | 306 | 0.0 | 6.4 | 0.00 | 0.00 | 0.00 | 100 | 1015.0 |
| 20260905120051 | 22 | 360 | 0.0 | 3.2 | 0.00 | 0.10 | 0.00 | 100 | 1015.2 |